Weather History for PAGY - August, 2013

Change the Weather History Date:

Wednesday, August 21, 2013

  Actual Average (PAJN) Record (PAJN)
Temperature  
Mean Temperature 58 °F 55 °F  
Max Temperature 60 °F 62 °F 78 °F (1977)
Min Temperature 55 °F 48 °F 38 °F (1960)
Degree Days  
Heating Degree Days 8 10  
Month to date heating degree days 176  
Since 1 June heating degree days 742  
Since 1 July heating degree days 427  
Cooling Degree Days 0 0  
Month to date cooling degree days 0  
Year to date cooling degree days 2  
Since 1 June cooling degree days 2  
Growing Degree Days 8 (Base 50)    
Moisture  
Dew Point 48 °F    
Average Humidity 71    
Maximum Humidity 83    
Minimum Humidity 64    
Precipitation  
Precipitation 0.03 in 0.19 in 1.37 in (2000)
Month to date precipitation 3.57  
Year to date precipitation 31.01  
Sea Level Pressure  
Sea Level Pressure 29.95 in    
Wind  
Wind Speed 15 mph (SSW)    
Max Wind Speed 21 mph    
Max Gust Speed 30 mph    
Visibility 10 miles    
Events      
T = Trace of Precipitation, MM = Missing Value Source: NWS Daily Summary

Daily Weather History Graph

Daily Weather History Graph

Search for Another Location

Airport or City:

Trip Planner

Search our weather history database for the weather conditions in past years. The results will help you decide how hot, cold, wet, or windy it might be!

Date:

Astronomy

Aug. 21, 2013 Rise Set
Actual Time 5:33 AM AKDT 8:33 PM AKDT
Civil Twilight 4:45 AM AKDT 9:20 PM AKDT
Nautical Twilight 3:40 AM AKDT 10:25 PM AKDT
Astronomical Twilight 1:48 AM AKDT 12:09 AM AKDT
Moon 8:11 PM AKDT (8/21) 6:48 AM AKDT (8/21)
Length of Visible Light 16h 35m
Length of Day
15h 00m
Full, 99% of the Moon is Illuminated
Aug 21
Full
Aug 28
Last Quarter
Sep 5
New
Sep 12
First Quarter
Sep 19
Full

Hourly Weather History & Observations

Time (AKDT) Temp. Dew Point Humidity Pressure Visibility Wind Dir Wind Speed Gust Speed Precip Events Conditions
12:53 AM 57.0 °F 48.9 °F 74% 30.04 in 10.0 mi SSW 18.4 mph 27.6 mph 0.03 in   Overcast
1:53 AM 57.9 °F 48.0 °F 70% 30.03 in 10.0 mi SSW 15.0 mph 21.9 mph N/A   Overcast
2:53 AM 57.9 °F 46.9 °F 67% 30.03 in 10.0 mi SSW 15.0 mph 24.2 mph N/A   Overcast
3:53 AM 57.0 °F 46.0 °F 67% 30.02 in 10.0 mi SSW 10.4 mph - N/A   Mostly Cloudy
4:53 AM 57.0 °F 46.9 °F 69% 30.02 in 10.0 mi SSW 12.7 mph 19.6 mph N/A   Mostly Cloudy
5:53 AM 57.9 °F 48.0 °F 70% 30.01 in 10.0 mi SSW 15.0 mph 27.6 mph N/A   Overcast
6:53 AM 57.9 °F 48.0 °F 70% 30.01 in 10.0 mi SSW 13.8 mph 20.7 mph N/A   Overcast
7:53 AM 57.0 °F 48.9 °F 74% 30.00 in 10.0 mi SSW 17.3 mph - N/A   Overcast
8:53 AM 57.0 °F 48.9 °F 74% 30.00 in 10.0 mi SSW 18.4 mph - N/A   Overcast
9:53 AM 57.9 °F 48.9 °F 72% 29.99 in 10.0 mi SSW 19.6 mph 27.6 mph N/A   Overcast
10:53 AM 59.0 °F 48.9 °F 69% 29.98 in 10.0 mi SSW 18.4 mph - N/A   Overcast
11:53 AM 57.9 °F 48.9 °F 72% 29.97 in 10.0 mi SSW 18.4 mph - N/A   Overcast
12:53 PM 59.0 °F 48.9 °F 69% 29.96 in 10.0 mi SSW 20.7 mph 29.9 mph N/A   Overcast
1:53 PM 59.0 °F 48.0 °F 67% 29.94 in 10.0 mi SSW 16.1 mph - N/A   Overcast
2:53 PM 60.1 °F 48.0 °F 64% 29.92 in 10.0 mi SSW 18.4 mph 27.6 mph N/A   Overcast
3:53 PM 60.1 °F 48.0 °F 64% 29.90 in 10.0 mi SSW 18.4 mph 27.6 mph N/A   Overcast
4:53 PM 59.0 °F 48.9 °F 69% 29.89 in 10.0 mi SSW 16.1 mph - N/A   Overcast
5:53 PM 59.0 °F 48.9 °F 69% 29.88 in 10.0 mi SSW 13.8 mph - N/A   Overcast
6:53 PM 59.0 °F 48.9 °F 69% 29.88 in 10.0 mi SSW 6.9 mph - N/A   Overcast
7:53 PM 57.9 °F 48.0 °F 70% 29.87 in 10.0 mi SSW 9.2 mph - N/A   Overcast
8:53 PM 57.0 °F 48.0 °F 72% 29.86 in 10.0 mi SSW 8.1 mph - N/A   Overcast
9:53 PM 57.9 °F 48.9 °F 72% 29.85 in 10.0 mi Calm Calm - N/A   Overcast
10:53 PM 55.9 °F 48.9 °F 77% 29.86 in 10.0 mi Calm Calm - N/A   Overcast
11:53 PM 55.0 °F 50.0 °F 83% 29.84 in 10.0 mi Calm Calm - N/A   Overcast